This is the latest recevied weather packets stored in our database for station/object 9M4RBN-3. If no packets are shown the sender has not sent any weather packets the latest 10 day(s).
| Time | Temp. | Humidity | Pressure | Rain* | Wind** | Luminosity | Snow |
|---|---|---|---|---|---|---|---|
| 1777966600 | 27.22° C | 47% | 1012.2 hPa | - | - | - | - |
| 1777965700 | 27.22° C | 49% | 1012.5 hPa | - | - | - | - |
| 1777964800 | 26.67° C | 51% | 1012.7 hPa | - | - | - | - |
| 1777963900 | 26.67° C | 50% | 1013.1 hPa | - | - | - | - |
| 1777963000 | 26.67° C | 50% | 1013.2 hPa | - | - | - | - |
| 1777962099 | 26.67° C | 50% | 1013.6 hPa | - | - | - | - |
| 1777961199 | 26.67° C | 49% | 1013.7 hPa | - | - | - | - |
| 1777960299 | 26.11° C | 50% | 1013.9 hPa | - | - | - | - |
| 1777959399 | 26.11° C | 50% | 1014.1 hPa | - | - | - | - |
| 1777958499 | 26.11° C | 49% | 1014.4 hPa | - | - | - | - |
| 1777957599 | 26.11° C | 49% | 1014.7 hPa | - | - | - | - |
| 1777956699 | 26.67° C | 51% | 1015 hPa | - | - | - | - |
| 1777955799 | 26.67° C | 54% | 1015.1 hPa | - | - | - | - |
| 1777954899 | 26.67° C | 62% | 1015.5 hPa | - | - | - | - |
| 1777953999 | 26.11° C | 67% | 1015.7 hPa | - | - | - | - |
| 1777953099 | 26.11° C | 42% | 1015.8 hPa | - | - | - | - |
| 1777952199 | 26.67° C | 44% | 1015.9 hPa | - | - | - | - |
| 1777951299 | 27.78° C | 56% | 1016 hPa | - | - | - | - |
| 1777950399 | 27.78° C | 71% | 1016 hPa | - | - | - | - |
| 1777949499 | 27.78° C | 70% | 1016.1 hPa | - | - | - | - |
| 1777948600 | 27.78° C | 70% | 1016.2 hPa | - | - | - | - |
| 1777947700 | 27.22° C | 68% | 1016.2 hPa | - | - | - | - |
| 1777946800 | 27.22° C | 68% | 1016.2 hPa | - | - | - | - |
| 1777945900 | 27.22° C | 68% | 1016.2 hPa | - | - | - | - |
| 1777945000 | 26.67° C | 67% | 1016.2 hPa | - | - | - | - |
* Rain since midnight (hover to see other rain measurements)
** Current wind speed in m/s (hover to see current wind gust speed)